Theta_e
311 312 312 312 309 311 308 307 306 305 307 309 308 308 309 302 299 298 293 293 293 290 290 291 290 290 290 289 289 289 288 288 287 286 285 285 283 284 283 283 283 283 283 282
311 313 312 311 308 308 307 308 307 306 306 306 306 306 306 303 301 300 297 294 293 289 288 289 289 290 290 289 289 289 288 288 287 286 285 284 283 282 282 281 281 281 281 281
313 313 308 309 308 308 307 308 307 308 304 303 301 302 304 303 301 300 298 295 292 290 289 288 288 289 290 289 289 289 288 287 287 286 285 284 283 282 281 280 280 280 280 280
310 308 308 307 308 306 307 306 307 306 304 306 303 309 304 303 301 298 297 292 292 289 289 288 288 289 290 289 289 288 288 287 286 285 284 283 282 281 280 280 279 279 279 279
314 306 306 306 306 305 308 304 305 304 304 303 303 303 303 299 301 302 296 293 292 290 289 287 288 290 290 289 289 288 288 286 286 285 283 282 281 280 279 279 278 278 279 279
309 305 304 306 305 305 304 305 303 299 300 305 304 304 303 302 302 300 296 294 291 289 287 287 289 290 290 289 288 288 287 286 285 284 283 281 280 280 279 278 278 278 278 278
309 306 305 305 307 305 304 305 311 311 305 311 300 300 308 306 302 298 297 293 290 289 287 287 286 288 289 288 288 288 287 285 284 283 282 280 279 278 278 277 277 277 277 277
313 314 305 304 305 308 304 306 311 310 310 311 301 306 306 299 294 292 293 293 290 288 287 287 286 288 288 288 287 287 285 284 283 281 280 279 278 277 277 276 276 276 276 276
309 309 300 301 302 304 304 304 303 305 285 297 305 301 300 294 292 290 292 290 289 288 287 287 287 288 288 287 287 286 284 283 281 280 279 278 277 276 275 275 275 275 276 276
309 311 301 297 299 296 301 299 303 300 303 304 306 305 309 303 297 290 289 289 288 287 286 286 286 287 287 287 287 285 283 281 280 279 277 276 275 275 274 274 274 275 275 274
304 308 303 298 300 302 297 299 299 300 305 307 304 311 302 304 299 292 290 290 288 287 287 286 286 287 287 286 285 283 281 280 279 277 276 275 274 273 273 273 274 274 274 274
303 305 306 301 296 295 299 301 302 305 303 300 304 311 299 298 298 291 290 290 288 287 286 285 286 286 285 285 283 282 280 278 277 276 274 273 273 272 272 273 273 273 273 273
302 305 304 307 302 296 295 296 299 298 301 307 307 311 295 296 294 291 290 289 288 287 285 285 284 284 284 283 282 280 278 277 275 274 273 272 272 272 272 272 272 272 272 272
306 305 308 312 309 299 297 296 296 302 304 309 309 308 307 305 301 293 290 288 287 286 286 285 283 282 282 282 280 278 277 275 273 272 271 271 271 271 272 271 272 271 271 270
303 309 304 309 310 303 305 306 295 298 303 307 309 309 308 307 307 303 295 289 287 287 286 284 283 281 281 280 278 277 275 273 272 271 271 271 271 271 271 270 270 269 269 268
297 308 304 308 306 304 306 307 306 302 304 305 306 307 307 307 306 304 294 288 287 287 286 285 283 282 280 279 277 275 273 271 271 270 270 270 270 270 269 269 268 268 267 267
297 300 301 311 307 306 308 309 308 308 308 308 308 308 307 306 298 295 291 289 288 287 286 284 282 280 279 276 274 272 271 271 270 270 269 269 269 268 267 267 266 266 266 267
297 299 304 308 305 312 310 304 305 306 306 306 307 307 306 305 295 294 289 288 288 287 285 283 279 277 276 274 272 271 270 269 269 268 268 267 267 266 266 265 265 265 267 267
303 303 308 310 311 310 310 306 301 303 308 304 304 304 304 292 289 289 287 287 287 285 282 279 278 276 273 272 270 270 269 268 267 267 266 266 265 264 264 263 264 266 266 266
300 304 310 312 313 316 311 295 293 297 304 306 303 302 301 290 293 299 285 283 282 280 278 276 275 273 272 270 269 269 268 266 266 265 265 264 264 263 262 263 265 265 265 266
304 304 309 312 315 313 309 291 293 304 310 299 298 299 290 293 295 289 283 281 280 278 275 275 273 271 270 269 268 267 266 266 264 263 263 263 263 262 263 264 264 264 265 265
306 306 307 308 312 313 295 290 302 304 293 293 293 290 291 288 285 285 283 279 278 276 275 273 271 270 268 267 267 266 265 263 263 262 263 263 263 262 263 263 264 264 264 265
312 309 310 308 309 301 295 304 297 294 294 290 291 289 290 286 285 284 281 278 276 275 274 272 270 269 267 266 265 264 263 262 261 262 263 262 262 262 263 263 264 264 265 265
304 301 306 302 306 301 295 295 292 292 292 290 289 289 288 287 284 283 280 278 276 275 272 270 269 268 266 264 264 262 262 261 261 261 261 261 261 261 262 263 263 264 265 266
310 301 306 305 305 301 302 299 295 293 290 289 288 288 288 286 285 282 281 278 276 274 271 269 268 267 264 263 263 262 261 260 260 260 260 260 260 261 261 262 262 264 265 267
304 308 307 310 309 308 309 302 296 292 291 290 288 288 287 287 285 283 281 277 275 272 269 267 266 264 263 263 262 261 260 260 259 258 259 259 259 260 261 261 261 262 264 266
Wind_Speed
2 4 5 8 7 3 2 4 7 5 5 5 8 12 21 11 11 11 10 14 15 15 15 25 18 11 6 3 1 8 12 12 16 21 25 28 28 29 30 28 31 34 36 37
4 5 4 1 5 3 4 4 8 10 2 7 9 11 18 9 11 19 20 18 17 12 9 18 18 13 7 2 1 5 13 15 16 21 23 22 23 19 27 23 27 28 33 34
6 2 4 3 3 3 4 5 6 8 7 5 7 5 10 3 8 7 13 14 15 18 15 12 18 16 9 5 3 5 13 13 16 20 23 25 25 25 19 24 26 28 32 32
6 1 5 5 4 7 5 4 3 5 4 4 4 9 5 5 12 10 13 15 17 15 11 11 17 16 12 8 4 4 10 14 17 20 22 24 22 20 24 29 32 31 33 35
7 8 6 6 7 8 8 2 2 3 4 4 4 4 6 2 10 18 14 19 18 17 15 13 15 18 14 10 6 6 10 16 17 19 21 24 25 27 30 29 30 36 35 32
6 0 5 6 2 4 4 2 2 4 2 2 5 8 4 5 8 6 5 16 16 17 13 12 21 15 12 8 7 7 9 17 17 18 21 22 23 28 27 30 31 30 30 31
1 4 1 3 3 2 3 5 4 5 2 7 3 4 12 11 13 10 9 12 15 15 14 12 9 13 11 9 8 8 10 17 17 18 20 24 24 26 27 28 28 30 32 32
5 9 8 6 6 6 6 7 6 7 4 7 1 9 7 7 7 7 8 10 12 13 13 11 11 15 12 9 9 7 12 15 17 19 23 24 24 24 26 27 30 31 32 34
7 7 1 1 1 2 4 5 1 1 2 3 5 8 8 5 8 5 7 10 14 15 14 12 11 15 13 11 9 7 11 15 17 21 23 26 26 27 28 29 30 31 32 34
6 5 1 2 1 3 3 5 4 2 3 7 7 9 14 9 11 5 8 12 12 12 11 10 8 15 12 8 8 9 12 16 20 23 25 25 27 27 29 29 30 32 35 36
5 3 3 4 8 10 2 3 1 3 5 6 3 11 7 8 10 11 15 13 14 15 13 10 9 14 8 8 7 11 14 19 23 23 26 27 27 26 26 27 31 32 34 37
7 5 5 13 1 2 2 10 13 6 7 4 3 21 9 8 9 10 13 13 12 12 10 8 10 11 9 7 8 11 15 18 21 23 24 25 25 25 25 27 30 32 36 38
9 4 2 6 3 2 6 6 6 2 2 18 9 21 4 4 1 9 10 11 12 12 9 8 7 8 9 7 7 12 15 18 20 23 23 24 24 23 26 29 32 34 35 38
15 8 9 17 9 6 6 11 12 16 8 23 28 34 37 27 21 9 10 11 13 14 13 10 7 7 6 5 8 11 17 17 20 22 21 22 24 26 29 32 32 35 35 37
9 15 9 24 20 6 6 15 14 17 28 18 40 30 34 31 30 12 16 12 13 15 15 11 8 6 6 5 8 12 12 17 19 19 20 23 27 28 28 32 33 34 35 36
4 10 6 16 8 6 13 30 19 25 30 26 31 40 40 37 26 23 11 13 16 15 14 10 8 5 5 5 8 9 14 15 17 20 21 25 26 28 29 31 34 34 35 36
9 6 5 22 4 5 13 24 27 29 31 20 28 40 38 29 13 10 7 13 17 16 15 12 9 7 6 6 5 10 14 19 20 20 22 23 25 27 30 32 33 33 34 35
8 6 5 7 4 13 24 4 12 24 26 23 26 32 26 20 1 4 10 15 15 15 13 10 8 10 8 4 5 9 13 15 15 18 20 24 26 28 30 32 32 33 33 34
16 10 8 10 15 23 29 15 8 9 35 14 26 30 27 3 2 6 5 10 15 13 10 11 16 12 8 2 4 9 11 14 15 17 22 25 26 30 31 32 32 33 35 34
13 12 16 12 14 22 33 3 6 8 17 16 20 23 15 10 3 13 10 8 10 11 16 17 17 13 6 1 5 9 11 13 13 19 24 28 27 27 30 30 33 34 32 33
5 8 22 22 21 9 26 9 7 6 22 4 9 10 11 9 6 4 14 8 11 14 17 19 15 10 6 3 6 7 9 11 17 22 26 29 29 29 28 30 31 32 31 31
15 11 8 10 11 20 11 6 16 13 2 7 6 8 12 7 8 16 15 14 15 14 16 15 13 10 6 4 6 8 9 15 18 21 26 28 29 28 28 30 30 29 28 29
14 18 9 12 9 2 14 23 24 5 7 7 7 7 13 12 10 17 15 15 12 13 15 14 14 12 7 5 6 8 11 15 20 25 26 26 24 24 26 28 28 28 27 27
11 6 10 2 25 19 15 13 6 10 8 6 7 13 16 16 16 14 15 14 13 13 14 14 14 10 7 5 6 9 11 15 19 23 24 22 23 25 26 24 24 25 26 28
12 15 19 15 26 5 16 21 19 15 8 8 9 12 18 17 17 17 13 14 12 14 16 15 13 11 8 5 6 7 11 14 17 18 17 20 20 22 23 24 23 25 25 29
11 19 12 15 29 19 31 15 20 18 19 17 16 11 13 18 17 14 13 13 15 15 17 15 13 13 9 6 4 6 9 11 14 16 16 19 19 21 21 22 25 23 25 28
Wind_Direction
21 65 235 230 192 181 207 233 247 246 235 226 237 251 271 208 217 222 202 199 202 202 196 186 181 172 149 121 83 12 5 1 357 356 356 355 348 346 343 344 341 341 341 340
28 230 215 177 143 184 220 272 270 283 245 197 259 247 273 214 223 214 208 203 202 194 186 189 189 191 188 166 229 353 3 356 351 350 352 345 337 334 336 338 327 329 333 329
176 229 128 183 178 202 221 199 246 241 336 278 320 256 246 278 256 240 220 209 205 195 186 189 195 198 198 215 240 336 355 345 345 347 346 341 338 335 334 325 323 320 322 325
229 233 184 213 239 156 277 213 270 292 346 248 41 291 254 252 270 224 215 200 202 190 189 188 191 195 205 218 235 280 335 341 343 343 341 338 329 318 318 318 317 314 323 325
242 170 194 211 218 161 224 110 214 218 246 332 226 248 256 57 275 260 216 215 205 193 187 186 191 197 205 214 234 267 322 339 339 335 335 332 321 318 317 310 310 320 322 316
246 57 179 214 143 167 111 21 52 55 77 287 225 191 234 204 218 257 218 213 194 190 183 186 193 195 210 225 248 262 311 331 329 327 329 326 314 315 307 312 316 311 306 307
289 218 221 173 146 88 102 70 321 324 339 237 144 234 252 248 250 237 230 208 201 188 181 184 183 196 215 235 251 253 307 313 325 319 324 324 317 309 306 307 304 300 302 303
207 278 175 182 207 179 171 165 166 248 240 285 200 245 249 237 281 283 261 213 195 187 183 185 187 198 213 239 253 246 305 304 324 324 322 319 316 311 307 299 298 294 293 293
175 266 128 199 96 131 170 183 160 54 99 340 240 286 291 289 280 276 212 178 192 190 185 185 191 199 213 234 234 268 301 313 322 321 323 321 320 315 303 300 299 293 290 293
209 285 152 122 120 23 148 158 85 14 271 265 264 274 247 245 262 195 222 217 201 190 185 191 187 202 217 235 227 290 308 318 324 329 323 316 313 311 308 302 297 296 294 296
135 154 205 128 207 175 126 221 158 149 171 204 297 269 202 214 219 205 214 214 200 199 192 186 188 203 213 211 261 297 324 328 327 324 321 314 314 311 303 298 300 299 298 298
201 156 210 214 354 9 230 200 182 197 231 240 143 261 166 196 236 183 213 210 204 202 187 181 186 192 196 229 271 315 326 321 322 319 313 314 310 308 307 306 303 303 300 299
174 218 290 318 13 353 224 208 218 47 104 234 215 261 67 354 277 210 217 207 203 197 183 175 174 186 204 238 295 313 315 316 320 320 317 311 311 315 313 309 307 306 302 299
163 186 181 233 221 127 186 215 208 214 234 252 241 262 268 269 263 232 219 205 198 192 182 183 183 186 201 250 284 296 308 319 323 321 312 315 321 321 317 311 310 307 304 300
179 236 194 246 250 174 221 234 191 208 230 235 263 262 267 269 270 257 225 204 190 188 183 181 178 179 200 248 269 291 296 320 322 315 324 326 325 321 316 313 311 308 305 302
180 241 173 255 230 201 264 257 238 230 247 249 258 265 266 268 283 276 225 193 192 195 179 172 168 159 176 229 276 289 316 320 328 335 332 329 323 319 317 315 313 310 307 305
165 172 150 250 183 80 272 257 239 247 245 234 246 251 264 276 248 236 204 195 195 186 171 167 164 157 181 226 276 305 320 339 345 334 329 323 322 319 319 316 314 312 310 308
184 179 158 246 115 233 260 173 202 223 253 229 243 255 254 258 282 249 198 190 186 175 157 150 142 163 193 226 285 324 343 348 336 330 329 327 325 322 320 317 314 312 314 312
204 188 218 224 231 257 286 236 188 194 273 208 227 246 253 145 59 263 205 181 174 157 141 136 155 167 177 195 338 349 347 343 341 336 328 324 328 323 319 315 315 318 316 314
207 232 223 215 235 242 252 117 131 119 268 265 211 232 234 134 212 252 160 136 122 116 129 138 156 159 147 91 8 4 356 346 345 335 325 325 326 319 313 313 318 317 316 315
181 207 222 228 239 243 257 153 151 167 258 110 185 209 152 189 211 132 134 118 129 133 138 150 149 144 140 87 25 19 356 354 338 329 328 332 333 326 318 317 318 318 318 319
188 181 206 229 241 248 136 89 187 222 154 165 179 173 178 146 131 147 149 143 142 143 146 148 144 141 120 74 32 22 10 341 335 330 335 340 344 330 322 321 323 324 324 325
220 210 207 206 214 160 186 216 214 170 168 194 176 175 162 148 158 158 152 151 153 147 147 157 145 133 122 71 41 27 357 343 336 339 344 342 332 329 329 328 328 330 333 334
226 178 230 147 247 238 216 222 204 190 196 175 183 170 164 158 154 158 152 154 152 151 154 154 144 132 119 78 49 26 357 339 339 344 344 335 332 335 335 333 334 334 337 337
200 151 215 243 265 322 255 219 210 202 173 168 169 171 168 153 165 159 159 157 154 152 150 150 141 133 116 87 53 14 355 347 349 346 342 340 336 340 332 333 337 339 341 345
185 206 193 225 237 216 251 207 191 186 194 194 167 167 169 161 162 162 162 155 152 151 147 141 137 133 132 115 67 10 356 355 353 349 347 343 342 341 333 333 334 348 350 352